Time,TemperatureF,DewpointF,PressureIn,WindDirection,WindDirectionDegrees,WindSpeedMPH,WindSpeedGustMPH,Humidity,HourlyPrecipIn,Conditions,Clouds,dailyrainin,SolarRadiationWatts/m^2,SoftwareType,DateUTC
2013-06-16 00:01:00,50.0,23.0,-100.00,NW,306,3.0,5.0,35,0.00,,,0.00,0.000000,,2013-06-16 06:01:00,
2013-06-16 00:33:00,48.0,23.0,-100.00,SW,216,2.0,4.0,37,0.00,,,-99.99,0.000000,,2013-06-16 06:33:00,
2013-06-16 00:43:00,48.0,23.0,-100.00,SW,216,2.0,4.0,37,0.00,,,-99.99,0.000000,,2013-06-16 06:43:00,
2013-06-16 00:52:00,48.0,23.0,-100.00,SW,216,2.0,4.0,37,0.00,,,-99.99,0.000000,,2013-06-16 06:52:00,
2013-06-16 01:01:00,48.0,23.0,-100.00,SW,216,2.0,4.0,37,0.00,,,-99.99,0.000000,,2013-06-16 07:01:00,
2013-06-16 01:33:00,45.0,24.0,-100.00,North,354,1.0,5.0,44,0.00,,,0.00,0.000000,,2013-06-16 07:33:00,
2013-06-16 01:43:00,45.0,24.0,-100.00,North,354,1.0,5.0,44,0.00,,,0.00,0.000000,,2013-06-16 07:43:00,
2013-06-16 01:53:00,45.0,24.0,-100.00,North,354,1.0,5.0,44,0.00,,,0.00,0.000000,,2013-06-16 07:53:00,
2013-06-16 02:02:00,45.0,24.0,-100.00,North,354,1.0,5.0,44,0.00,,,0.00,0.000000,,2013-06-16 08:02:00,
2013-06-16 02:34:00,45.0,25.0,-100.00,NW,307,2.0,6.0,45,0.00,,,0.00,0.000000,,2013-06-16 08:34:00,
2013-06-16 02:43:00,45.0,25.0,-100.00,NW,307,2.0,6.0,45,0.00,,,0.00,0.000000,,2013-06-16 08:43:00,
2013-06-16 02:54:00,45.0,25.0,-100.00,NW,307,2.0,6.0,45,0.00,,,0.00,0.000000,,2013-06-16 08:54:00,
2013-06-16 03:01:00,45.0,25.0,-100.00,NW,307,2.0,6.0,45,0.00,,,0.00,0.000000,,2013-06-16 09:01:00,
2013-06-16 03:33:00,41.0,25.0,-100.00,NW,311,3.0,5.0,52,0.00,,,0.00,0.000000,,2013-06-16 09:33:00,
2013-06-16 03:43:00,41.0,25.0,-100.00,NW,311,3.0,5.0,52,0.00,,,0.00,0.000000,,2013-06-16 09:43:00,
2013-06-16 03:52:00,41.0,25.0,-100.00,NW,311,3.0,5.0,52,0.00,,,0.00,0.000000,,2013-06-16 09:52:00,
2013-06-16 04:01:00,41.0,25.0,-100.00,NW,311,3.0,5.0,52,0.00,,,0.00,0.000000,,2013-06-16 10:01:00,
2013-06-16 04:33:00,41.0,25.0,-100.00,NNW,335,3.0,6.0,53,0.00,,,0.00,0.000000,,2013-06-16 10:33:00,
2013-06-16 04:43:00,41.0,25.0,-100.00,NNW,335,3.0,6.0,53,0.00,,,0.00,0.000000,,2013-06-16 10:43:00,
2013-06-16 04:54:00,41.0,25.0,-100.00,NNW,335,3.0,6.0,53,0.00,,,0.00,0.000000,,2013-06-16 10:54:00,
2013-06-16 05:02:00,41.0,25.0,-100.00,NNW,335,3.0,6.0,53,0.00,,,0.00,0.000000,,2013-06-16 11:02:00,
2013-06-16 05:34:00,39.0,26.0,-100.00,NNW,332,4.0,5.0,59,0.00,,,0.00,0.000000,,2013-06-16 11:34:00,
2013-06-16 05:43:00,39.0,26.0,-100.00,NNW,332,4.0,5.0,59,0.00,,,0.00,0.000000,,2013-06-16 11:43:00,
2013-06-16 05:53:00,39.0,26.0,-100.00,NNW,332,4.0,5.0,59,0.00,,,0.00,0.000000,,2013-06-16 11:53:00,
2013-06-16 06:02:00,39.0,26.0,-100.00,NNW,332,4.0,5.0,59,0.00,,,0.00,0.000000,,2013-06-16 12:02:00,
2013-06-16 06:33:00,40.0,26.0,-100.00,West,264,1.0,7.0,57,0.00,,,0.00,6.000000,,2013-06-16 12:33:00,
2013-06-16 06:43:00,40.0,26.0,-100.00,West,264,1.0,7.0,57,0.00,,,0.00,6.000000,,2013-06-16 12:43:00,
2013-06-16 06:53:00,40.0,26.0,-100.00,West,264,1.0,7.0,57,0.00,,,0.00,6.000000,,2013-06-16 12:53:00,
2013-06-16 07:01:00,40.0,26.0,-100.00,West,264,1.0,7.0,57,0.00,,,0.00,6.000000,,2013-06-16 13:01:00,
2013-06-16 07:34:00,49.0,30.0,-100.00,NNE,33,1.0,3.0,47,0.00,,,0.00,153.000000,,2013-06-16 13:34:00,
2013-06-16 07:43:00,49.0,30.0,-100.00,NNE,33,1.0,3.0,47,0.00,,,0.00,153.000000,,2013-06-16 13:43:00,
2013-06-16 07:53:00,49.0,30.0,-100.00,NNE,33,1.0,3.0,47,0.00,,,0.00,153.000000,,2013-06-16 13:53:00,
2013-06-16 08:02:00,49.0,30.0,-100.00,NNE,33,1.0,3.0,47,0.00,,,0.00,153.000000,,2013-06-16 14:02:00,
2013-06-16 08:34:00,55.0,29.0,-100.00,East,88,3.0,4.0,37,0.00,,,0.00,388.000000,,2013-06-16 14:34:00,
2013-06-16 08:44:00,55.0,29.0,-100.00,East,88,3.0,4.0,37,0.00,,,0.00,388.000000,,2013-06-16 14:44:00,
2013-06-16 08:52:00,55.0,29.0,-100.00,East,88,3.0,4.0,37,0.00,,,0.00,388.000000,,2013-06-16 14:52:00,
2013-06-16 09:02:00,55.0,29.0,-100.00,East,88,3.0,4.0,37,0.00,,,0.00,388.000000,,2013-06-16 15:02:00,
2013-06-16 09:34:00,62.0,29.0,-100.00,SE,133,3.0,6.0,28,0.00,,,0.00,622.000000,,2013-06-16 15:34:00,
2013-06-16 09:43:00,62.0,29.0,-100.00,SE,133,3.0,6.0,28,0.00,,,0.00,622.000000,,2013-06-16 15:43:00,
2013-06-16 09:53:00,62.0,29.0,-100.00,SE,133,3.0,6.0,28,0.00,,,0.00,622.000000,,2013-06-16 15:53:00,
2013-06-16 10:02:00,62.0,29.0,-100.00,SE,133,3.0,6.0,28,0.00,,,0.00,622.000000,,2013-06-16 16:02:00,
2013-06-16 10:33:00,65.0,26.0,-100.00,East,88,4.0,9.0,23,0.00,,,0.00,702.000000,,2013-06-16 16:33:00,
2013-06-16 10:43:00,65.0,26.0,-100.00,East,88,4.0,9.0,23,0.00,,,0.00,702.000000,,2013-06-16 16:43:00,
2013-06-16 10:53:00,65.0,26.0,-100.00,East,88,4.0,9.0,23,0.00,,,0.00,702.000000,,2013-06-16 16:53:00,
2013-06-16 11:02:00,65.0,26.0,-100.00,East,88,4.0,9.0,23,0.00,,,0.00,702.000000,,2013-06-16 17:02:00,
2013-06-16 11:34:00,61.0,28.0,-100.00,WNW,286,8.0,21.0,28,0.00,,,0.00,344.000000,,2013-06-16 17:34:00,
2013-06-16 11:43:00,61.0,28.0,-100.00,WNW,286,8.0,21.0,28,0.00,,,0.00,344.000000,,2013-06-16 17:43:00,
2013-06-16 11:53:00,61.0,28.0,-100.00,WNW,286,8.0,21.0,28,0.00,,,0.00,344.000000,,2013-06-16 17:53:00,
2013-06-16 12:02:00,61.0,28.0,-100.00,WNW,286,8.0,21.0,28,0.00,,,0.00,344.000000,,2013-06-16 18:02:00,
2013-06-16 13:34:00,61.0,35.0,-100.00,NNE,13,7.0,15.0,38,-99.99,,,0.01,1124.000000,,2013-06-16 19:34:00,
2013-06-16 13:43:00,61.0,35.0,-100.00,NNE,13,7.0,15.0,38,-99.99,,,0.01,1124.000000,,2013-06-16 19:43:00,
2013-06-16 13:53:00,61.0,35.0,-100.00,NNE,13,7.0,15.0,38,-99.99,,,0.01,1124.000000,,2013-06-16 19:53:00,
2013-06-16 14:02:00,61.0,35.0,-100.00,NNE,13,7.0,15.0,38,-99.99,,,0.01,1124.000000,,2013-06-16 20:02:00,
2013-06-16 14:43:00,50.0,36.0,-100.00,North,351,15.0,33.0,58,0.00,,,0.01,821.000000,,2013-06-16 20:43:00,
2013-06-16 15:01:00,50.0,36.0,-100.00,North,351,15.0,33.0,58,0.00,,,0.01,821.000000,,2013-06-16 21:01:00,
2013-06-16 15:33:00,59.0,35.0,-100.00,North,10,10.0,27.0,41,-99.99,,,0.01,1093.000000,,2013-06-16 21:33:00,
2013-06-16 15:42:00,59.0,35.0,-100.00,North,10,10.0,27.0,41,-99.99,,,0.01,1093.000000,,2013-06-16 21:42:00,
2013-06-16 15:53:00,59.0,35.0,-100.00,North,10,10.0,27.0,41,-99.99,,,0.01,1093.000000,,2013-06-16 21:53:00,
2013-06-16 16:01:00,59.0,35.0,-100.00,North,10,10.0,27.0,41,-99.99,,,0.01,1093.000000,,2013-06-16 22:01:00,
2013-06-16 16:32:00,61.0,31.0,-100.00,SSW,197,8.0,22.0,32,0.00,,,0.01,983.000000,,2013-06-16 22:32:00,
2013-06-16 16:42:00,61.0,31.0,-100.00,SSW,197,8.0,22.0,32,0.00,,,0.01,983.000000,,2013-06-16 22:42:00,
2013-06-16 16:52:00,61.0,31.0,-100.00,SSW,197,8.0,22.0,32,0.00,,,0.01,983.000000,,2013-06-16 22:52:00,
2013-06-16 17:01:00,61.0,31.0,-100.00,SSW,197,8.0,22.0,32,0.00,,,0.01,983.000000,,2013-06-16 23:01:00,
2013-06-16 17:42:00,53.0,36.0,-100.00,SSE,157,7.0,22.0,52,0.00,,,-99.99,474.000000,,2013-06-16 23:42:00,
2013-06-16 17:52:00,53.0,36.0,-100.00,SSE,157,7.0,22.0,52,0.00,,,-99.99,474.000000,,2013-06-16 23:52:00,
2013-06-16 18:02:00,53.0,36.0,-100.00,SSE,157,7.0,22.0,52,0.00,,,-99.99,474.000000,,2013-06-17 00:02:00,
2013-06-16 19:02:00,45.0,41.0,-100.00,SW,221,2.0,22.0,85,0.05,,,0.06,15.000000,,2013-06-17 01:02:00,
2013-06-16 19:32:00,50.0,39.0,-100.00,South,176,4.0,16.0,65,0.01,,,0.07,337.000000,,2013-06-17 01:32:00,
2013-06-16 19:43:00,50.0,39.0,-100.00,South,176,4.0,16.0,65,0.01,,,0.07,337.000000,,2013-06-17 01:43:00,
2013-06-16 19:53:00,50.0,39.0,-100.00,South,176,4.0,16.0,65,0.01,,,0.07,337.000000,,2013-06-17 01:53:00,
2013-06-16 20:02:00,50.0,39.0,-100.00,South,176,4.0,16.0,65,0.01,,,0.07,337.000000,,2013-06-17 02:02:00,
2013-06-16 20:34:00,46.0,38.0,-100.00,WNW,300,2.0,8.0,73,0.00,,,0.07,82.000000,,2013-06-17 02:34:00,
2013-06-16 20:43:00,46.0,38.0,-100.00,WNW,300,2.0,8.0,73,0.00,,,0.07,82.000000,,2013-06-17 02:43:00,
2013-06-16 20:53:00,46.0,38.0,-100.00,WNW,300,2.0,8.0,73,0.00,,,0.07,82.000000,,2013-06-17 02:53:00,
2013-06-16 21:02:00,46.0,38.0,-100.00,WNW,300,2.0,8.0,73,0.00,,,0.07,82.000000,,2013-06-17 03:02:00,
2013-06-16 21:33:00,42.0,38.0,-100.00,North,11,1.0,5.0,86,0.00,,,0.07,3.000000,,2013-06-17 03:33:00,
2013-06-16 21:44:00,42.0,38.0,-100.00,North,11,1.0,5.0,86,0.00,,,0.07,3.000000,,2013-06-17 03:44:00,
2013-06-16 21:54:00,42.0,38.0,-100.00,North,11,1.0,5.0,86,0.00,,,0.07,3.000000,,2013-06-17 03:54:00,
2013-06-16 22:02:00,42.0,38.0,-100.00,North,11,1.0,5.0,86,0.00,,,0.07,3.000000,,2013-06-17 04:02:00,
2013-06-16 22:34:00,41.0,38.0,-100.00,North,10,1.0,5.0,90,0.00,,,0.07,0.000000,,2013-06-17 04:34:00,
2013-06-16 22:43:00,41.0,38.0,-100.00,North,10,1.0,5.0,90,0.00,,,0.07,0.000000,,2013-06-17 04:43:00,
2013-06-16 22:53:00,41.0,38.0,-100.00,North,10,1.0,5.0,90,0.00,,,0.07,0.000000,,2013-06-17 04:53:00,
2013-06-16 23:02:00,41.0,38.0,-100.00,North,10,1.0,5.0,90,0.00,,,0.07,0.000000,,2013-06-17 05:02:00,
2013-06-16 23:33:00,39.0,37.0,-100.00,NW,305,3.0,7.0,93,0.00,,,0.07,0.000000,,2013-06-17 05:33:00,
2013-06-16 23:44:00,39.0,37.0,-100.00,NW,305,3.0,7.0,93,0.00,,,0.07,0.000000,,2013-06-17 05:44:00,
2013-06-16 23:53:00,39.0,37.0,-100.00,NW,305,3.0,7.0,93,0.00,,,0.07,0.000000,,2013-06-17 05:53:00,